THORAD AGENA D DEB, 19250

Orbit data source: Space-Track

THORAD AGENA D DEB, 19250 is space debris in SSO originally from a launch on Wed, 08 Apr 1970 UTC launched from the Air Force Western Test Range (AFWTR). Debris objects in space refer to the collection of defunct objects orbiting the Earth. Examples of debris include non-operational satellites, rocket bodies, and fragments generated from explosions, collisions, or faulty payload assembly.

Loading next visibility...
Identifier
19250, 1970-025PU
Orbit
SSO
Country
Flag of USUS
Related business
Manufacturer
Unknown
Mission
Spacecraft
Bus & Motor
Unknown
Mass
Unknown
Launch date (UTC)
1970-04-08 (56 years ago)
Launch vehicle
Unknown
Launch site
Air Force Western Test Range (AFWTR)
Object type
Payload
Rocket body
Debris
Shape & HBR
Unknown shape, 0.1 m
Radar Cross Section
Small (<0.1 m²)

Expand to show TLE details & history
Last TLE update: 8 hours ago

TLE from 8 hours ago
0 THORAD AGENA D DEB
1 19250U 70025PU  26122.95652116  .00003040  00000-0  26421-2 0  9993
2 19250  99.4751 231.4979 0165438 234.6041 191.9285 13.80817580879084
Epoch: 2026-05-02T22:57Z
TLE epoch observation values (Epoch: 2026-05-02T22:57:23.428Z)
Latitude
64.52509°
Longitude
5.88711°
Altitude
1,090.945 km
Speed
7.253 km/s
True Right ascension
14h 04m 24s
True Declination
64° 23' 50"
Sunlit
Object was in daylight at epoch
Visualization orbit readout
Latitude
Unknown
Longitude
Unknown
Altitude
Unknown
Speed
Unknown
Apparent Right ascension
Unknown
Apparent Declination
Unknown
Sunlit
N/A
Visualization observer readout
Local Sidereal Time
14:45:08
Azimuth
Unknown
Elevation
Unknown
Doppler factor
Unknown
Orbital elements
Apogee altitude
1,079.607 km
Perigee altitude
836.864 km
Semi-major axis
7,336.373 km
Eccentricity
0.01654
Inclination
99.4751°
RAAN
231.4979°
Arg. of periapsis
234.6041°
True anomaly
191.54444°
Mean anomaly
191.9285°
Eccentric anomaly
191.7357°
Mean motion
3.45399 °/min
Orbital period
104.23 mins
BSTAR
0.0026421
Loading maneuver chart data...
Computing Atmospheric mass density...

Documentation

Showing up to 5 results
|